Temp
20 20 19 19 19 18 19 18 18 18 18 18 18 18 18 18 18 18 17 16 15 14 14 13 13 13 12 12 11 11 11 11 11 10 10 10 10 11 11 11 11 11 11
21 20 20 20 19 19 19 19 19 19 19 18 18 18 18 18 18 18 17 16 15 14 13 13 13 13 12 12 11 11 11 10 10 10 10 10 10 10 10 10 10 10 10
21 20 20 20 20 20 20 20 20 19 19 18 18 18 18 18 18 17 17 16 15 14 14 13 13 13 12 12 11 11 10 10 10 10 10 9 9 9 9 10 10 10 10
20 20 20 20 20 20 20 19 19 19 19 18 18 18 18 17 17 17 17 16 15 14 13 13 13 12 12 12 12 11 10 10 10 10 10 10 9 9 9 9 9 10 10
20 20 20 20 20 20 20 19 19 19 18 18 18 18 17 17 17 17 17 16 15 14 14 13 12 12 12 12 12 11 10 10 10 10 10 9 9 9 9 9 9 9 10
20 20 20 20 19 19 20 19 19 18 18 18 18 17 17 17 16 16 16 16 15 14 14 13 13 12 12 11 11 11 10 10 10 10 10 9 9 9 9 9 9 10 10
20 20 20 19 19 19 19 19 19 18 18 18 17 17 16 16 16 15 15 15 15 14 14 13 13 12 12 12 11 10 10 10 9 10 9 9 9 9 9 9 10 10 10
20 20 19 19 19 19 19 19 18 18 18 17 17 15 11 14 15 15 15 15 15 14 14 13 12 12 12 11 11 10 9 9 9 9 9 9 9 9 9 9 9 9 10
18 18 19 19 18 18 18 19 18 17 16 17 17 15 12 12 12 14 14 14 14 14 13 13 12 12 11 11 11 10 10 10 9 9 8 8 8 8 8 8 9 9 9
18 19 19 17 18 18 18 18 18 17 16 15 16 16 17 16 11 11 13 14 14 14 13 12 12 12 11 11 10 10 10 9 9 8 8 8 7 8 8 8 8 8 8
19 18 18 18 18 17 17 18 18 17 17 15 14 15 14 14 15 11 8 10 13 13 13 12 12 12 11 11 10 10 9 8 7 7 7 7 7 7 7 7 7 7 7
20 19 18 17 18 16 16 16 16 16 16 15 14 14 14 14 13 12 10 9 10 11 12 12 11 11 11 10 9 9 8 7 6 6 6 6 6 6 6 6 6 6 6
19 19 18 18 17 17 16 16 16 16 16 14 14 13 13 14 14 13 12 9 9 8 10 10 9 9 9 9 8 7 6 5 4 4 4 5 5 5 5 4 4 5 5
17 17 17 17 17 16 15 15 15 15 15 14 13 13 13 13 13 13 12 10 6 4 5 5 6 6 6 4 4 6 5 4 4 4 4 3 3 3 3 3 3 3 3
15 15 16 16 16 16 15 14 14 14 14 14 13 13 12 12 12 12 12 12 11 7 4 1 2 2 2 4 4 3 3 2 2 2 2 2 3 2 2 2 2 2 2
12 13 13 13 13 14 15 14 13 13 13 13 13 12 12 11 10 10 10 9 8 7 3 1 1 2 3 3 2 2 1 2 1 1 1 2 1 2 2 2 1 2 2
9 9 9 10 11 12 12 12 12 12 12 12 11 11 10 9 7 7 6 6 5 5 3 1 1 1 0 1 -1 -0 0 1 1 1 2 1 1 1 1 1 1 1 1
8 7 8 8 9 9 9 9 9 9 10 9 8 8 7 5 4 4 3 3 4 4 4 1 -0 -1 -1 -1 -0 -1 -0 1 1 2 0 1 1 1 0 1 1 1 1
6 6 6 6 6 5 5 6 6 6 6 6 6 5 5 4 3 3 3 3 2 2 3 2 -1 -1 -1 -1 -1 -0 0 -0 -0 -0 0 1 1 1 0 0 0 0 0
4 4 4 4 3 4 4 4 4 4 3 3 3 3 3 2 2 2 1 1 0 0 0 -0 -1 -1 -1 -1 -1 -1 -1 -0 -0 0 -0 -0 -0 -0 -0 -0 0 -0 -0
2 2 3 3 2 2 2 2 1 1 2 0 1 1 1 1 1 1 1 0 0 -0 -0 -1 -1 -1 -1 -1 -1 0 -0 -0 -0 -1 -1 -1 -1 -1 -1 -1 -1 -1 -1
2 1 1 1 1 1 0 -0 1 0 0 -0 -0 -0 0 -0 -0 -0 -0 -1 -1 -1 -1 -0 -0 -0 0 0 0 -0 -1 -2 -3 -1 -2 -2 -2 -2 -1 -1 -1 -1 -0
0 0 -0 -0 -0 -0 0 1 1 0 -0 -1 -1 -1 -1 -1 -1 -1 -1 -1 -1 -1 -1 -1 -1 -1 -1 -1 -1 -1 -2 -2 -3 -2 -3 -3 -2 -2 -1 -1 -1 -1 -1
-0 -0 -1 -1 -1 -1 -1 -0 -0 -1 -1 -2 -2 -2 -1 -2 -2 -2 -2 -2 -2 -2 -1 -2 -2 -2 -2 -2 -2 -2 -3 -3 -3 -3 -3 -3 -2 -2 -1 -2 -1 -2 -2
-1 -1 -1 -1 -1 -1 -1 -1 -1 -1 -2 -2 -2 -2 -2 -2 -2 -2 -2 -2 -2 -2 -2 -2 -2 -2 -3 -3 -3 -3 -3 -4 -4 -3 -3 -4 -3 -2 -2 -2 -1 -2 -2
-1 -0 -1 -1 -1 -1 -1 -1 -1 -1 -1 -2 -2 -2 -3 -3 -2 -2 -3 -3 -2 -2 -2 -2 -3 -3 -3 -3 -3 -3 -3 -4 -4 -4 -4 -4 -4 -5 -4 -4 -3 -3 -3
Height
827 828 830 831 833 835 837 838 840 841 843 846 847 847 847 847 848 848 850 851 852 853 856 857 857 858 859 859 860 860 860 860 861 861 861 861 861 861 862 863 863 863 863
826 827 828 828 829 832 834 835 837 839 839 842 844 845 846 847 847 845 845 848 850 852 854 855 856 857 858 858 858 859 859 859 860 860 861 861 861 861 862 862 863 863 863
824 825 827 827 828 829 832 833 834 835 836 838 840 843 843 845 845 846 843 843 846 849 851 853 854 856 857 857 857 858 858 858 858 859 859 860 860 860 862 862 863 863 864
820 821 822 824 826 827 828 830 831 832 832 834 836 838 840 841 842 843 844 842 843 844 847 850 851 853 855 855 856 856 856 856 856 857 857 858 859 859 860 861 862 862 863
814 817 818 819 821 823 824 826 828 830 829 831 833 836 837 838 839 840 841 841 840 840 843 846 847 849 851 853 853 854 854 854 855 855 856 856 857 858 859 859 860 861 862
810 811 813 815 817 818 819 820 821 824 825 828 830 833 833 834 835 836 836 837 839 838 839 840 843 844 846 848 850 850 851 851 852 853 853 855 855 856 857 858 859 860 860
804 806 806 808 810 812 812 814 816 818 820 823 827 829 829 830 830 831 832 832 833 834 835 835 837 839 842 843 846 847 848 849 850 850 851 853 854 854 855 856 857 858 858
799 800 801 802 804 805 807 808 809 810 812 816 819 824 828 827 825 825 826 827 828 828 830 831 833 834 837 840 841 843 843 844 846 848 849 850 851 853 854 854 855 855 856
793 795 797 797 797 799 800 802 802 803 805 808 811 813 821 818 817 817 818 820 822 823 824 826 828 830 831 835 837 838 839 840 841 844 845 847 849 850 851 852 853 852 852
786 788 791 792 792 793 793 795 798 799 801 802 805 805 804 805 808 814 812 813 816 817 818 820 822 824 826 827 829 833 835 836 837 839 841 841 844 846 846 848 850 850 849
781 782 783 786 787 788 788 790 792 792 793 795 795 797 800 801 802 803 809 807 810 811 812 813 816 819 821 822 824 828 833 834 835 836 837 839 840 840 842 843 844 846 845
778 779 779 780 782 783 784 785 786 786 786 787 789 791 790 793 795 797 800 803 805 806 807 811 813 817 820 820 821 825 829 833 833 833 834 835 837 838 838 838 838 840 840
775 775 775 776 777 778 779 779 779 779 780 780 781 782 785 785 786 789 793 796 800 803 804 805 807 811 816 822 815 820 826 827 829 829 831 833 833 833 833 832 833 834 835
772 771 772 771 771 772 772 774 774 773 774 774 774 776 778 779 782 783 785 789 799 800 802 801 804 805 807 812 817 817 821 823 824 826 827 828 828 828 828 827 828 829 829
768 767 768 767 766 767 767 767 768 768 769 769 768 770 774 775 777 778 779 781 784 793 798 802 802 806 808 811 809 812 819 820 817 822 820 823 822 822 823 821 822 822 822
767 765 765 765 765 765 765 765 765 765 764 764 764 766 768 770 771 773 776 777 780 783 793 794 796 797 798 807 809 806 815 813 813 816 814 817 819 817 817 817 816 817 816
767 765 765 764 763 763 763 763 762 761 763 762 763 764 764 767 768 770 772 774 777 781 787 791 794 797 796 791 803 805 810 809 809 810 808 812 815 812 812 812 810 810 810
768 765 765 763 762 761 761 761 760 759 760 761 763 764 764 767 770 772 774 776 776 777 778 785 787 797 793 794 797 803 803 804 803 804 804 808 807 805 805 806 804 804 805
768 767 765 764 762 761 761 760 760 760 760 760 762 766 767 769 771 773 776 777 778 779 781 781 786 787 789 792 796 799 799 799 799 800 802 802 800 799 799 799 799 800 799
768 768 765 765 764 763 762 763 763 763 761 761 763 767 767 771 774 775 777 779 779 780 781 783 785 787 790 793 794 796 797 796 796 797 797 795 795 795 794 794 794 794 793
771 770 767 767 768 767 766 765 766 769 763 768 768 771 769 774 776 778 778 779 780 781 781 784 785 788 789 791 791 792 793 793 792 792 791 790 791 791 789 789 788 788 788
774 772 773 771 770 773 772 771 770 770 771 774 773 777 770 777 780 781 781 781 783 784 783 784 786 786 786 788 788 789 790 790 790 789 789 787 788 784 783 783 782 782 782
778 778 777 777 778 778 777 775 775 775 777 778 778 778 777 780 782 783 783 783 784 785 784 786 787 786 786 787 787 788 788 789 789 789 788 781 782 779 779 777 776 776 776
782 782 783 782 782 782 782 781 781 780 781 782 782 780 780 783 785 786 785 785 785 785 785 786 786 785 786 786 786 787 787 787 786 785 785 778 777 774 772 771 770 770 769
787 787 787 786 786 786 786 786 785 785 786 786 785 784 786 787 786 785 785 785 784 784 785 784 784 784 784 784 785 785 785 785 783 781 780 778 773 772 769 764 765 765 765
791 791 791 791 790 790 790 789 789 789 788 789 788 788 788 787 786 785 784 784 784 784 783 782 782 782 782 782 782 782 782 782 783 780 778 778 775 776 769 760 759 759 757
Wind_Speed
18 15 16 15 12 18 14 20 12 11 13 11 10 10 9 10 11 9 9 9 11 9 8 9 9 8 8 8 8 8 8 8 8 9 9 9 9 9 9 9 9 10 10
19 18 18 20 17 17 17 18 15 17 15 13 14 13 11 11 11 11 10 11 12 12 10 10 10 9 8 8 8 7 8 7 7 7 7 7 7 7 8 7 7 8 8
19 20 21 20 21 20 20 18 17 17 17 16 16 15 14 14 14 13 11 12 12 15 12 13 12 11 10 9 8 7 7 7 6 5 5 5 5 5 5 5 5 6 6
25 22 23 24 19 21 22 22 20 19 18 18 18 17 17 16 14 15 16 12 13 14 17 16 14 13 12 11 10 9 7 6 5 2 2 2 3 3 3 4 4 5 5
27 29 26 25 25 22 24 24 23 22 21 19 19 18 20 17 18 17 17 17 14 14 15 19 18 17 15 14 12 11 9 7 5 3 2 2 0 1 2 3 4 5 5
27 28 30 28 26 27 26 28 26 24 24 22 20 20 20 19 18 20 20 20 20 17 16 17 20 21 21 17 15 14 12 10 7 5 4 3 3 2 2 3 4 5 6
28 28 31 32 30 31 33 31 30 26 25 23 21 18 15 19 21 21 22 23 23 25 23 20 22 22 24 22 18 17 14 11 9 7 5 5 5 4 4 4 5 6 7
28 32 30 35 35 34 32 32 33 30 30 30 20 12 3 10 23 26 25 25 26 27 26 25 22 21 24 24 23 20 17 14 11 8 6 6 5 5 5 5 6 7 9
29 19 29 32 32 32 34 34 36 34 28 32 32 12 3 5 6 19 31 28 28 28 28 28 27 22 22 22 22 24 22 19 14 10 8 7 5 5 5 8 9 10 11
24 26 33 25 32 30 32 33 33 35 28 26 34 36 21 5 4 2 13 30 29 28 30 29 30 29 27 23 21 21 21 20 17 12 10 8 6 6 6 9 12 12 13
23 25 27 25 33 31 32 33 33 33 36 27 30 26 30 22 14 3 3 8 25 29 27 31 31 30 30 30 26 23 22 19 15 12 10 8 7 7 8 9 11 14 15
20 22 25 27 27 32 33 33 33 31 32 36 29 31 27 19 16 8 2 3 8 19 30 24 27 28 29 28 25 22 21 18 13 11 9 7 7 8 10 11 12 15 16
18 22 24 24 28 28 31 34 35 36 35 32 38 30 33 32 22 24 13 4 3 4 12 24 20 22 19 23 22 19 19 17 12 9 7 7 8 10 12 13 15 16 18
15 16 18 19 22 25 25 29 33 36 33 32 32 37 27 30 30 23 24 14 1 4 3 5 15 19 24 23 22 22 19 17 13 13 11 10 11 13 15 15 16 18 19
12 13 13 15 17 20 23 21 27 32 32 32 32 33 30 22 24 27 22 23 15 5 6 5 3 15 20 23 20 21 23 20 17 15 15 16 20 21 17 16 17 19 19
14 15 15 13 13 13 19 18 21 24 26 29 28 27 25 25 23 24 25 22 18 8 3 11 15 17 23 25 26 24 25 23 20 20 19 22 21 17 17 18 19 20 21
12 13 14 15 14 11 13 16 15 17 19 18 18 17 19 19 17 16 15 14 10 11 4 7 14 19 22 24 24 22 21 21 21 22 20 17 18 16 18 20 21 21 22
9 10 11 9 9 10 11 9 8 9 10 10 9 11 12 10 8 7 8 10 11 13 10 7 11 15 12 15 15 17 16 17 17 15 13 17 16 17 18 20 20 21 21
9 9 8 10 10 10 9 6 3 1 2 5 4 4 4 5 6 8 8 9 9 8 8 8 7 8 7 10 11 12 12 13 11 13 13 13 14 16 18 19 19 20 19
10 9 10 10 10 10 9 7 4 4 5 7 7 7 8 7 9 10 9 8 7 8 8 9 6 6 5 7 7 8 10 7 8 10 15 17 18 16 16 16 17 19 20
17 16 17 17 16 15 12 8 9 8 13 13 15 12 12 8 7 6 8 8 8 7 8 6 5 4 4 6 7 4 7 7 11 15 18 15 14 14 18 20 19 20 18
19 20 20 21 22 20 18 15 14 16 17 16 17 14 19 14 11 8 7 5 5 3 4 2 4 4 2 4 5 3 2 6 4 7 8 22 22 20 20 21 19 17 19
20 22 22 22 22 18 15 15 15 17 16 15 13 12 12 8 6 4 3 2 2 1 2 2 4 2 4 2 4 8 11 12 12 18 18 21 12 22 21 22 20 20 20
20 20 18 18 21 18 17 16 15 14 13 11 11 12 11 6 4 3 2 2 1 2 1 3 4 4 6 5 6 6 7 10 14 17 13 12 13 22 23 24 26 20 16
18 17 17 18 20 17 14 13 13 13 11 10 8 8 5 3 4 4 3 3 3 2 2 4 6 7 9 10 10 11 13 13 11 8 17 15 11 17 28 25 10 10 12
16 16 17 15 13 14 12 12 8 7 8 6 5 5 5 4 4 5 4 4 3 2 5 8 9 9 8 9 8 10 11 12 11 9 4 4 8 12 10 12 9 18 24
Wind_Direction
203 203 205 212 207 210 215 215 229 212 206 225 217 214 210 202 193 224 222 208 196 185 172 169 162 156 149 138 128 115 104 98 95 86 85 84 79 75 70 65 61 59 54
212 214 209 213 206 211 215 220 213 211 214 217 221 218 217 213 205 209 211 209 211 210 188 181 177 171 167 155 146 134 122 114 106 98 92 86 79 74 69 65 58 52 48
222 220 222 221 219 215 216 223 221 219 217 216 219 222 216 216 215 208 221 209 212 214 208 190 187 186 182 173 166 158 144 132 120 113 98 83 75 71 58 56 46 42 33
225 223 225 227 227 222 220 219 224 220 214 216 214 220 221 217 217 211 213 220 213 213 210 196 194 194 193 188 180 175 166 160 149 132 107 92 62 51 48 28 14 11 8
226 227 228 229 226 229 224 221 222 223 218 216 218 224 222 219 220 214 215 214 218 217 212 212 208 201 197 196 193 189 182 172 179 170 178 169 189 348 358 357 350 350 338
226 223 225 229 228 227 229 219 217 220 222 219 221 222 224 219 224 221 217 217 216 213 219 219 217 214 209 201 198 196 191 189 197 201 196 210 227 246 278 313 321 322 322
231 228 226 225 225 226 228 225 218 216 217 213 212 218 212 224 226 225 223 219 219 218 216 220 219 222 217 216 203 200 197 201 207 219 225 227 234 239 257 277 291 300 303
243 234 233 228 225 227 228 225 216 213 217 207 194 170 225 237 232 230 224 222 222 221 219 220 223 226 222 223 216 207 208 208 213 224 225 223 232 249 268 279 284 289 293
239 239 239 239 235 228 232 228 223 213 207 206 206 178 186 217 181 221 224 222 221 221 221 217 222 220 222 226 225 224 226 223 219 214 206 206 221 250 275 286 289 290 291
255 253 246 247 241 237 236 237 233 223 214 202 208 216 225 176 181 192 219 220 220 221 221 220 219 220 218 222 222 227 227 225 219 211 206 203 221 255 272 286 292 293 293
258 257 253 253 249 249 248 245 241 233 224 214 206 215 227 237 233 147 193 211 219 222 223 221 221 220 218 218 221 226 232 223 210 208 205 217 235 250 272 280 286 290 291
263 258 257 251 258 255 255 250 248 245 234 222 217 216 216 213 219 200 187 169 209 221 220 224 223 223 220 215 219 226 230 226 210 205 213 223 249 271 276 280 283 288 289
280 269 268 263 261 262 261 258 255 253 248 233 222 227 225 222 220 218 203 152 156 195 203 210 205 202 215 224 214 220 221 219 211 216 230 252 265 271 276 279 286 287 288
311 307 294 290 271 270 267 262 259 258 255 247 232 229 234 229 227 223 214 190 184 207 196 166 204 204 209 228 211 210 220 220 234 244 244 263 276 283 280 282 287 289 289
322 310 310 318 291 271 274 266 263 261 258 250 242 236 236 236 228 226 222 213 203 191 198 198 194 203 192 196 204 215 226 238 209 228 251 270 277 281 277 281 283 284 287
316 309 308 315 334 299 284 283 277 269 254 252 244 237 234 238 230 227 230 229 225 192 160 187 195 197 208 225 236 228 226 230 234 250 267 278 277 274 278 281 282 287 288
346 349 341 325 318 302 292 286 279 275 267 250 242 230 224 225 222 225 232 230 196 174 139 176 203 211 199 204 215 226 239 249 258 267 274 272 271 279 282 282 285 287 288
9 7 347 344 334 320 309 303 287 263 241 226 220 215 206 219 229 228 228 229 221 205 183 163 177 197 196 212 228 238 250 263 269 274 265 266 275 282 286 287 287 286 285
18 9 16 15 16 14 9 357 322 295 171 178 179 211 210 222 187 174 179 176 167 161 179 165 149 175 194 210 227 249 258 268 273 274 272 278 284 287 287 288 288 285 284
42 43 43 37 30 30 36 34 48 113 114 119 132 146 135 159 169 162 158 153 146 127 112 116 109 143 182 216 236 261 264 273 277 275 282 289 290 288 287 289 287 287 287
63 64 66 62 58 52 49 72 89 87 104 104 105 110 112 119 131 143 145 141 137 130 129 139 132 169 193 200 216 264 248 285 287 289 298 290 297 286 283 294 292 290 289
84 82 81 80 73 69 71 76 95 100 100 103 101 105 98 101 96 94 108 103 97 108 107 162 182 198 218 273 268 248 290 324 326 308 310 295 300 296 298 300 301 294 294
86 84 81 79 77 75 75 83 92 95 95 93 94 86 91 88 88 93 98 107 106 170 208 234 239 255 318 339 295 294 304 294 278 290 303 296 302 298 303 305 299 294 294
88 85 85 84 82 72 73 75 79 85 85 80 76 73 72 65 75 76 61 3 5 1 293 235 263 267 273 282 288 286 292 290 286 291 298 280 304 299 311 308 305 298 295
87 84 80 78 76 68 64 65 64 68 72 72 62 64 70 54 23 18 6 321 342 351 263 297 289 286 284 280 274 276 277 293 304 301 299 286 307 308 307 307 312 309 299
83 81 78 70 70 71 57 56 53 63 66 70 64 58 46 25 13 8 341 5 341 310 288 287 293 281 273 279 275 267 273 271 279 317 60 323 297 327 317 298 279 304 310